"Sample Date","Sample Time","Sensor Name","Sample Value","Units","Flow Rate","Sample Interval","Sample Volume","Laser Status","Number Channels","Micron Size 0","Counts/Channel 0","Micron Size 1","Counts/Channel 1","Micron Size 2","Counts/Channel 2","Micron Size 3","Counts/Channel 3","Micron Size 4","Counts/Channel 4","Micron Size 5","Counts/Channel 5","Micron Size 6","Counts/Channel 6","Micron Size 7","Counts/Channel 7","Micron Size 8","Counts/Channel 8","Micron Size 9","Counts/Channel 9","Micron Size 10","Counts/Channel 10","Micron Size 11","Counts/Channel 11","Micron Size 12","Counts/Channel 12","Micron Size 13","Counts/Channel 13","Micron Size 14","Counts/Channel 14","Micron Size 15","Counts/Channel 15","Micron Size 16","Counts/Channel 16","Micron Size 17","Counts/Channel 17","Micron Size 18","Counts/Channel 18","Micron Size 19","Counts/Channel 19","Micron Size 20","Counts/Channel 20","Micron Size 21","Counts/Channel 21","Micron Size 22","Counts/Channel 22","Micron Size 23","Counts/Channel 23","Micron Size 24","Counts/Channel 24","Micron Size 25","Counts/Channel 25","Micron Size 26","Counts/Channel 26","Micron Size 27","Counts/Channel 27","Micron Size 28","Counts/Channel 28","Micron Size 29","Counts/Channel 29","Micron Size 30","Counts/Channel 30","Micron Size 31","Counts/Channel 31"
"07/09/06","13:00:00","AMMA06",33324.000,"cc",28331.723,6.00,2833.172,1,6,0.100,20483.000,0.200,11363.000,0.300,1278.000,0.500,128.000,1.000,72.000,5.000,0
"07/09/06","13:00:06","AMMA06",33606.000,"cc",28325.270,6.00,2832.527,1,6,0.100,20626.000,0.200,11408.000,0.300,1352.000,0.500,127.000,1.000,93.000,5.000,0
"07/09/06","13:00:12","AMMA06",33076.000,"cc",28281.273,6.00,2828.127,1,6,0.100,20213.000,0.200,11372.000,0.300,1290.000,0.500,132.000,1.000,69.000,5.000,0
"07/09/06","13:00:18","AMMA06",33157.000,"cc",28315.639,6.00,2831.564,1,6,0.100,20531.000,0.200,11111.000,0.300,1297.000,0.500,136.000,1.000,82.000,5.000,0
"07/09/06","13:00:24","AMMA06",33508.000,"cc",28321.566,6.00,2832.157,1,6,0.100,20541.000,0.200,11509.000,0.300,1232.000,0.500,153.000,1.000,73.000,5.000,0
"07/09/06","13:00:30","AMMA06",33431.000,"cc",28331.781,6.00,2833.178,1,6,0.100,20501.000,0.200,11449.000,0.300,1259.000,0.500,146.000,1.000,76.000,5.000,0
"07/09/06","13:00:36","AMMA06",33359.000,"cc",28289.951,6.00,2828.995,1,6,0.100,20387.000,0.200,11412.000,0.300,1365.000,0.500,116.000,1.000,79.000,5.000,0
"07/09/06","13:00:42","AMMA06",33697.000,"cc",28290.887,6.00,2829.089,1,6,0.100,20489.000,0.200,11532.000,0.300,1353.000,0.500,221.000,1.000,102.000,5.000,0
"07/09/06","13:00:48","AMMA06",33348.000,"cc",28342.773,6.00,2834.278,1,6,0.100,20120.000,0.200,11793.000,0.300,1229.000,0.500,129.000,1.000,77.000,5.000,0
"07/09/06","13:00:54","AMMA06",33559.000,"cc",28365.482,6.00,2836.548,1,6,0.100,20494.000,0.200,11496.000,0.300,1364.000,0.500,129.000,1.000,76.000,5.000,0
"07/09/06","13:01:00","AMMA06",33345.000,"cc",28339.981,6.00,2833.998,1,6,0.100,20477.000,0.200,11353.000,0.300,1306.000,0.500,132.000,1.000,77.000,5.000,0
"07/09/06","13:01:06","AMMA06",33435.000,"cc",28296.414,6.00,2829.642,1,6,0.100,20265.000,0.200,11616.000,0.300,1365.000,0.500,106.000,1.000,83.000,5.000,0
"07/09/06","13:01:12","AMMA06",33167.000,"cc",28321.502,6.00,2832.150,1,6,0.100,20145.000,0.200,11538.000,0.300,1272.000,0.500,139.000,1.000,73.000,5.000,0
"07/09/06","13:01:18","AMMA06",33483.000,"cc",28297.252,6.00,2829.725,1,6,0.100,20580.000,0.200,11361.000,0.300,1318.000,0.500,154.000,1.000,70.000,5.000,0
"07/09/06","13:01:24","AMMA06",33236.000,"cc",28256.354,6.00,2825.636,1,6,0.100,20188.000,0.200,11508.000,0.300,1332.000,0.500,122.000,1.000,86.000,5.000,0
"07/09/06","13:01:30","AMMA06",33125.000,"cc",28350.537,6.00,2835.054,1,6,0.100,20268.000,0.200,11403.000,0.300,1246.000,0.500,130.000,1.000,78.000,5.000,0
"07/09/06","13:01:36","AMMA06",33368.000,"cc",28314.770,6.00,2831.477,1,6,0.100,20384.000,0.200,11486.000,0.300,1312.000,0.500,125.000,1.000,61.000,5.000,0
"07/09/06","13:01:42","AMMA06",33112.000,"cc",28326.996,6.00,2832.700,1,6,0.100,20280.000,0.200,11317.000,0.300,1288.000,0.500,153.000,1.000,74.000,5.000,0
"07/09/06","13:01:48","AMMA06",32879.000,"cc",28348.961,6.00,2834.896,1,6,0.100,19767.000,0.200,11568.000,0.300,1330.000,0.500,141.000,1.000,73.000,5.000,0
"07/09/06","13:01:54","AMMA06",33155.000,"cc",28318.397,6.00,2831.840,1,6,0.100,20108.000,0.200,11512.000,0.300,1305.000,0.500,141.000,1.000,89.000,5.000,0
"07/09/06","13:02:00","AMMA06",32923.000,"cc",28292.631,6.00,2829.263,1,6,0.100,19953.000,0.200,11396.000,0.300,1342.000,0.500,152.000,1.000,80.000,5.000,0
"07/09/06","13:02:06","AMMA06",33361.000,"cc",28284.447,6.00,2828.445,1,6,0.100,20326.000,0.200,11528.000,0.300,1312.000,0.500,120.000,1.000,75.000,5.000,0
"07/09/06","13:02:12","AMMA06",33418.000,"cc",28291.451,6.00,2829.145,1,6,0.100,20382.000,0.200,11553.000,0.300,1256.000,0.500,152.000,1.000,75.000,5.000,0
"07/09/06","13:02:18","AMMA06",33176.000,"cc",28326.748,6.00,2832.675,1,6,0.100,20217.000,0.200,11420.000,0.300,1308.000,0.500,155.000,1.000,76.000,5.000,0
"07/09/06","13:02:24","AMMA06",33110.000,"cc",28316.803,6.00,2831.680,1,6,0.100,20252.000,0.200,11370.000,0.300,1273.000,0.500,139.000,1.000,76.000,5.000,0
"07/09/06","13:02:30","AMMA06",33504.000,"cc",28293.260,6.00,2829.326,1,6,0.100,20420.000,0.200,11560.000,0.300,1310.000,0.500,140.000,1.000,74.000,5.000,0
"07/09/06","13:02:36","AMMA06",33356.000,"cc",28346.445,6.00,2834.645,1,6,0.100,20541.000,0.200,11288.000,0.300,1327.000,0.500,130.000,1.000,70.000,5.000,0
"07/09/06","13:02:42","AMMA06",33008.000,"cc",28345.654,6.00,2834.566,1,6,0.100,20271.000,0.200,11237.000,0.300,1292.000,0.500,142.000,1.000,66.000,5.000,0
"07/09/06","13:02:48","AMMA06",33802.000,"cc",28346.973,6.00,2834.698,1,6,0.100,20799.000,0.200,11412.000,0.300,1366.000,0.500,150.000,1.000,75.000,5.000,0
"07/09/06","13:02:54","AMMA06",33174.000,"cc",28330.662,6.00,2833.066,1,6,0.100,20340.000,0.200,11319.000,0.300,1265.000,0.500,167.000,1.000,83.000,5.000,0
"07/09/06","13:03:00","AMMA06",33234.000,"cc",28297.193,6.00,2829.720,1,6,0.100,20420.000,0.200,11339.000,0.300,1249.000,0.500,146.000,1.000,80.000,5.000,0
"07/09/06","13:03:06","AMMA06",33537.000,"cc",28349.926,6.00,2834.993,1,6,0.100,20625.000,0.200,11361.000,0.300,1339.000,0.500,135.000,1.000,77.000,5.000,0
"07/09/06","13:03:12","AMMA06",33242.000,"cc",28308.481,6.00,2830.848,1,6,0.100,20530.000,0.200,11236.000,0.300,1259.000,0.500,124.000,1.000,93.000,5.000,0
"07/09/06","13:03:18","AMMA06",33078.000,"cc",28357.373,6.00,2835.738,1,6,0.100,20247.000,0.200,11331.000,0.300,1269.000,0.500,146.000,1.000,85.000,5.000,0
"07/09/06","13:03:24","AMMA06",33267.000,"cc",28311.479,6.00,2831.148,1,6,0.100,20366.000,0.200,11396.000,0.300,1292.000,0.500,135.000,1.000,78.000,5.000,0
"07/09/06","13:03:30","AMMA06",33211.000,"cc",28234.516,6.00,2823.452,1,6,0.100,20294.000,0.200,11459.000,0.300,1233.000,0.500,143.000,1.000,82.000,5.000,0
"07/09/06","13:03:36","AMMA06",33063.000,"cc",28297.510,6.00,2829.751,1,6,0.100,20474.000,0.200,11086.000,0.300,1291.000,0.500,138.000,1.000,74.000,5.000,0
"07/09/06","13:03:42","AMMA06",33080.000,"cc",28321.949,6.00,2832.195,1,6,0.100,20428.000,0.200,11209.000,0.300,1238.000,0.500,150.000,1.000,55.000,5.000,0
"07/09/06","13:03:48","AMMA06",33193.000,"cc",28323.154,6.00,2832.316,1,6,0.100,20362.000,0.200,11398.000,0.300,1209.000,0.500,147.000,1.000,77.000,5.000,0
"07/09/06","13:03:54","AMMA06",33332.000,"cc",28330.232,6.00,2833.023,1,6,0.100,20293.000,0.200,11516.000,0.300,1283.000,0.500,147.000,1.000,93.000,5.000,0
"07/09/06","13:04:00","AMMA06",33128.000,"cc",28372.191,6.00,2837.219,1,6,0.100,20378.000,0.200,11309.000,0.300,1204.000,0.500,167.000,1.000,70.000,5.000,0
"07/09/06","13:04:06","AMMA06",33049.000,"cc",28272.537,6.00,2827.254,1,6,0.100,20339.000,0.200,11241.000,0.300,1267.000,0.500,130.000,1.000,72.000,5.000,0
"07/09/06","13:04:12","AMMA06",33762.000,"cc",28267.147,6.00,2826.715,1,6,0.100,20736.000,0.200,11595.000,0.300,1226.000,0.500,131.000,1.000,74.000,5.000,0
"07/09/06","13:04:18","AMMA06",33074.000,"cc",28343.736,6.00,2834.374,1,6,0.100,20195.000,0.200,11397.000,0.300,1266.000,0.500,143.000,1.000,73.000,5.000,0
"07/09/06","13:04:24","AMMA06",34123.000,"cc",28350.037,6.00,2835.004,1,6,0.100,20753.000,0.200,11544.000,0.300,1442.000,0.500,265.000,1.000,119.000,5.000,0
"07/09/06","13:04:30","AMMA06",33254.000,"cc",28362.447,6.00,2836.245,1,6,0.100,20323.000,0.200,11393.000,0.300,1302.000,0.500,146.000,1.000,90.000,5.000,0
"07/09/06","13:04:36","AMMA06",33124.000,"cc",28228.824,6.00,2822.883,1,6,0.100,20419.000,0.200,11218.000,0.300,1258.000,0.500,151.000,1.000,78.000,5.000,0
"07/09/06","13:04:42","AMMA06",33316.000,"cc",28294.881,6.00,2829.488,1,6,0.100,20534.000,0.200,11269.000,0.300,1308.000,0.500,137.000,1.000,68.000,5.000,0
"07/09/06","13:04:48","AMMA06",33279.000,"cc",28359.881,6.00,2835.988,1,6,0.100,20408.000,0.200,11377.000,0.300,1240.000,0.500,168.000,1.000,86.000,5.000,0
"07/09/06","13:04:54","AMMA06",33016.000,"cc",28330.406,6.00,2833.041,1,6,0.100,20251.000,0.200,11217.000,0.300,1302.000,0.500,159.000,1.000,87.000,5.000,0
"07/09/06","13:05:00","AMMA06",33409.000,"cc",28298.773,6.00,2829.877,1,6,0.100,20367.000,0.200,11535.000,0.300,1283.000,0.500,140.000,1.000,84.000,5.000,0
"07/09/06","13:05:06","AMMA06",33402.000,"cc",28270.076,6.00,2827.008,1,6,0.100,20574.000,0.200,11386.000,0.300,1235.000,0.500,131.000,1.000,76.000,5.000,0
"07/09/06","13:05:12","AMMA06",33252.000,"cc",28309.391,6.00,2830.939,1,6,0.100,20511.000,0.200,11316.000,0.300,1178.000,0.500,167.000,1.000,80.000,5.000,0
"07/09/06","13:05:18","AMMA06",33282.000,"cc",28365.672,6.00,2836.567,1,6,0.100,20592.000,0.200,11221.000,0.300,1259.000,0.500,147.000,1.000,63.000,5.000,0
"07/09/06","13:05:24","AMMA06",33005.000,"cc",28374.854,6.00,2837.486,1,6,0.100,20294.000,0.200,11254.000,0.300,1237.000,0.500,128.000,1.000,92.000,5.000,0
"07/09/06","13:05:30","AMMA06",33160.000,"cc",28281.338,6.00,2828.134,1,6,0.100,20414.000,0.200,11268.000,0.300,1270.000,0.500,133.000,1.000,75.000,5.000,0
"07/09/06","13:05:36","AMMA06",33054.000,"cc",28321.568,6.00,2832.157,1,6,0.100,20323.000,0.200,11284.000,0.300,1220.000,0.500,145.000,1.000,82.000,5.000,0
"07/09/06","13:05:42","AMMA06",33289.000,"cc",28353.815,6.00,2835.382,1,6,0.100,20493.000,0.200,11280.000,0.300,1287.000,0.500,161.000,1.000,68.000,5.000,0
"07/09/06","13:05:48","AMMA06",33350.000,"cc",28239.027,6.00,2823.903,1,6,0.100,20520.000,0.200,11316.000,0.300,1321.000,0.500,131.000,1.000,62.000,5.000,0
"07/09/06","13:05:54","AMMA06",33744.000,"cc",28318.145,6.00,2831.815,1,6,0.100,20829.000,0.200,11424.000,0.300,1265.000,0.500,139.000,1.000,87.000,5.000,0
"07/09/06","13:06:00","AMMA06",33362.000,"cc",28298.090,6.00,2829.809,1,6,0.100,20572.000,0.200,11346.000,0.300,1254.000,0.500,123.000,1.000,67.000,5.000,0
"07/09/06","13:06:06","AMMA06",33455.000,"cc",28325.590,6.00,2832.559,1,6,0.100,20535.000,0.200,11425.000,0.300,1235.000,0.500,180.000,1.000,80.000,5.000,0
"07/09/06","13:06:12","AMMA06",33294.000,"cc",28277.928,6.00,2827.793,1,6,0.100,20592.000,0.200,11198.000,0.300,1266.000,0.500,159.000,1.000,79.000,5.000,0
"07/09/06","13:06:18","AMMA06",33573.000,"cc",28313.584,6.00,2831.359,1,6,0.100,20749.000,0.200,11338.000,0.300,1282.000,0.500,137.000,1.000,67.000,5.000,0
"07/09/06","13:06:24","AMMA06",33284.000,"cc",28366.648,6.00,2836.665,1,6,0.100,20484.000,0.200,11360.000,0.300,1248.000,0.500,118.000,1.000,74.000,5.000,0
"07/09/06","13:06:30","AMMA06",33227.000,"cc",28286.434,6.00,2828.644,1,6,0.100,20386.000,0.200,11380.000,0.300,1245.000,0.500,153.000,1.000,63.000,5.000,0
"07/09/06","13:06:36","AMMA06",33575.000,"cc",28328.369,6.00,2832.837,1,6,0.100,20655.000,0.200,11396.000,0.300,1299.000,0.500,149.000,1.000,76.000,5.000,0
"07/09/06","13:06:42","AMMA06",33221.000,"cc",28360.023,6.00,2836.002,1,6,0.100,20398.000,0.200,11359.000,0.300,1242.000,0.500,152.000,1.000,70.000,5.000,0
"07/09/06","13:06:48","AMMA06",33114.000,"cc",28311.055,6.00,2831.106,1,6,0.100,20457.000,0.200,11157.000,0.300,1263.000,0.500,153.000,1.000,84.000,5.000,0
"07/09/06","13:06:54","AMMA06",33136.000,"cc",28334.481,6.00,2833.448,1,6,0.100,20453.000,0.200,11249.000,0.300,1221.000,0.500,129.000,1.000,84.000,5.000,0
"07/09/06","13:07:00","AMMA06",33541.000,"cc",28266.522,6.00,2826.652,1,6,0.100,20807.000,0.200,11239.000,0.300,1281.000,0.500,138.000,1.000,76.000,5.000,0
"07/09/06","13:07:06","AMMA06",33405.000,"cc",28335.576,6.00,2833.558,1,6,0.100,20415.000,0.200,11479.000,0.300,1288.000,0.500,148.000,1.000,75.000,5.000,0
"07/09/06","13:07:12","AMMA06",33617.000,"cc",28283.004,6.00,2828.301,1,6,0.100,20621.000,0.200,11518.000,0.300,1267.000,0.500,142.000,1.000,69.000,5.000,0
"07/09/06","13:07:18","AMMA06",33524.000,"cc",28304.004,6.00,2830.401,1,6,0.100,20625.000,0.200,11444.000,0.300,1242.000,0.500,145.000,1.000,68.000,5.000,0
"07/09/06","13:07:24","AMMA06",33223.000,"cc",28359.742,6.00,2835.974,1,6,0.100,20364.000,0.200,11390.000,0.300,1235.000,0.500,153.000,1.000,81.000,5.000,0
"07/09/06","13:07:30","AMMA06",33418.000,"cc",28335.430,6.00,2833.543,1,6,0.100,20304.000,0.200,11604.000,0.300,1294.000,0.500,143.000,1.000,73.000,5.000,0
"07/09/06","13:07:36","AMMA06",33587.000,"cc",28299.145,6.00,2829.915,1,6,0.100,20428.000,0.200,11638.000,0.300,1305.000,0.500,148.000,1.000,68.000,5.000,0
"07/09/06","13:07:42","AMMA06",33338.000,"cc",28353.883,6.00,2835.388,1,6,0.100,20344.000,0.200,11455.000,0.300,1306.000,0.500,149.000,1.000,84.000,5.000,0
"07/09/06","13:07:48","AMMA06",33337.000,"cc",28255.660,6.00,2825.566,1,6,0.100,20406.000,0.200,11451.000,0.300,1261.000,0.500,138.000,1.000,81.000,5.000,0
"07/09/06","13:07:54","AMMA06",33538.000,"cc",28361.109,6.00,2836.111,1,6,0.100,20438.000,0.200,11627.000,0.300,1246.000,0.500,140.000,1.000,87.000,5.000,0
"07/09/06","13:08:00","AMMA06",33733.000,"cc",28332.748,6.00,2833.275,1,6,0.100,20548.000,0.200,11658.000,0.300,1313.000,0.500,142.000,1.000,72.000,5.000,0
"07/09/06","13:08:06","AMMA06",33577.000,"cc",28314.516,6.00,2831.452,1,6,0.100,20420.000,0.200,11630.000,0.300,1289.000,0.500,159.000,1.000,79.000,5.000,0
"07/09/06","13:08:12","AMMA06",33791.000,"cc",28288.365,6.00,2828.837,1,6,0.100,20573.000,0.200,11694.000,0.300,1300.000,0.500,138.000,1.000,86.000,5.000,0
"07/09/06","13:08:18","AMMA06",33714.000,"cc",28315.525,6.00,2831.553,1,6,0.100,20433.000,0.200,11711.000,0.300,1365.000,0.500,129.000,1.000,76.000,5.000,0
"07/09/06","13:08:24","AMMA06",33505.000,"cc",28285.652,6.00,2828.565,1,6,0.100,20338.000,0.200,11673.000,0.300,1301.000,0.500,128.000,1.000,65.000,5.000,0
"07/09/06","13:08:30","AMMA06",33417.000,"cc",28330.924,6.00,2833.093,1,6,0.100,20402.000,0.200,11511.000,0.300,1254.000,0.500,162.000,1.000,88.000,5.000,0
"07/09/06","13:08:36","AMMA06",33725.000,"cc",28364.160,6.00,2836.416,1,6,0.100,20407.000,0.200,11805.000,0.300,1290.000,0.500,156.000,1.000,67.000,5.000,0
"07/09/06","13:08:42","AMMA06",33455.000,"cc",28333.397,6.00,2833.340,1,6,0.100,20359.000,0.200,11579.000,0.300,1302.000,0.500,144.000,1.000,71.000,5.000,0
"07/09/06","13:08:48","AMMA06",33761.000,"cc",28272.533,6.00,2827.253,1,6,0.100,20562.000,0.200,11574.000,0.300,1393.000,0.500,162.000,1.000,70.000,5.000,0
"07/09/06","13:08:54","AMMA06",33575.000,"cc",28281.523,6.00,2828.153,1,6,0.100,20350.000,0.200,11625.000,0.300,1367.000,0.500,150.000,1.000,83.000,5.000,0
"07/09/06","13:09:00","AMMA06",33657.000,"cc",28342.891,6.00,2834.289,1,6,0.100,20414.000,0.200,11769.000,0.300,1220.000,0.500,153.000,1.000,101.000,5.000,0
"07/09/06","13:09:06","AMMA06",33358.000,"cc",28334.979,6.00,2833.498,1,6,0.100,20159.000,0.200,11625.000,0.300,1352.000,0.500,145.000,1.000,77.000,5.000,0
"07/09/06","13:09:12","AMMA06",33575.000,"cc",28284.949,6.00,2828.495,1,6,0.100,20369.000,0.200,11699.000,0.300,1319.000,0.500,125.000,1.000,63.000,5.000,0
"07/09/06","13:09:18","AMMA06",33797.000,"cc",28291.742,6.00,2829.174,1,6,0.100,20449.000,0.200,11846.000,0.300,1280.000,0.500,142.000,1.000,80.000,5.000,0
"07/09/06","13:09:24","AMMA06",33492.000,"cc",28323.619,6.00,2832.362,1,6,0.100,20210.000,0.200,11731.000,0.300,1304.000,0.500,153.000,1.000,94.000,5.000,0
"07/09/06","13:09:30","AMMA06",33728.000,"cc",28314.295,6.00,2831.430,1,6,0.100,20243.000,0.200,11906.000,0.300,1336.000,0.500,167.000,1.000,76.000,5.000,0
"07/09/06","13:09:36","AMMA06",33775.000,"cc",28350.176,6.00,2835.018,1,6,0.100,20325.000,0.200,11897.000,0.300,1312.000,0.500,145.000,1.000,96.000,5.000,0
"07/09/06","13:09:42","AMMA06",33512.000,"cc",28318.885,6.00,2831.889,1,6,0.100,20200.000,0.200,11664.000,0.300,1402.000,0.500,148.000,1.000,98.000,5.000,0
"07/09/06","13:09:48","AMMA06",33516.000,"cc",28292.553,6.00,2829.255,1,6,0.100,20241.000,0.200,11697.000,0.300,1337.000,0.500,162.000,1.000,79.000,5.000,0
"07/09/06","13:09:54","AMMA06",33642.000,"cc",28374.879,6.00,2837.488,1,6,0.100,20171.000,0.200,11906.000,0.300,1355.000,0.500,123.000,1.000,87.000,5.000,0
"07/09/06","13:10:00","AMMA06",33639.000,"cc",28275.934,6.00,2827.594,1,6,0.100,20097.000,0.200,12007.000,0.300,1307.000,0.500,147.000,1.000,81.000,5.000,0
"07/09/06","13:10:06","AMMA06",33457.000,"cc",28364.889,6.00,2836.489,1,6,0.100,20082.000,0.200,11853.000,0.300,1301.000,0.500,143.000,1.000,78.000,5.000,0
"07/09/06","13:10:12","AMMA06",33640.000,"cc",28296.176,6.00,2829.618,1,6,0.100,20176.000,0.200,11886.000,0.300,1363.000,0.500,134.000,1.000,81.000,5.000,0
"07/09/06","13:10:18","AMMA06",33948.000,"cc",28319.256,6.00,2831.926,1,6,0.100,20397.000,0.200,11973.000,0.300,1335.000,0.500,155.000,1.000,88.000,5.000,0
"07/09/06","13:10:24","AMMA06",33457.000,"cc",28348.633,6.00,2834.864,1,6,0.100,20114.000,0.200,11742.000,0.300,1365.000,0.500,154.000,1.000,82.000,5.000,0
"07/09/06","13:10:30","AMMA06",33495.000,"cc",28304.217,6.00,2830.422,1,6,0.100,20102.000,0.200,11838.000,0.300,1325.000,0.500,147.000,1.000,83.000,5.000,0
"07/09/06","13:10:36","AMMA06",33798.000,"cc",28275.889,6.00,2827.589,1,6,0.100,20312.000,0.200,11954.000,0.300,1312.000,0.500,132.000,1.000,88.000,5.000,0
"07/09/06","13:10:42","AMMA06",33688.000,"cc",28355.311,6.00,2835.531,1,6,0.100,20285.000,0.200,11841.000,0.300,1351.000,0.500,130.000,1.000,81.000,5.000,0
"07/09/06","13:10:48","AMMA06",33862.000,"cc",28362.344,6.00,2836.235,1,6,0.100,20438.000,0.200,11887.000,0.300,1302.000,0.500,144.000,1.000,91.000,5.000,0
"07/09/06","13:10:54","AMMA06",33447.000,"cc",28340.777,6.00,2834.078,1,6,0.100,20204.000,0.200,11732.000,0.300,1307.000,0.500,135.000,1.000,69.000,5.000,0
"07/09/06","13:11:00","AMMA06",33947.000,"cc",28341.979,6.00,2834.198,1,6,0.100,20340.000,0.200,12010.000,0.300,1363.000,0.500,149.000,1.000,85.000,5.000,0
"07/09/06","13:11:06","AMMA06",33501.000,"cc",28271.775,6.00,2827.178,1,6,0.100,20222.000,0.200,11724.000,0.300,1342.000,0.500,141.000,1.000,72.000,5.000,0
"07/09/06","13:11:12","AMMA06",33479.000,"cc",28325.740,6.00,2832.574,1,6,0.100,20202.000,0.200,11727.000,0.300,1338.000,0.500,134.000,1.000,78.000,5.000,0
"07/09/06","13:11:18","AMMA06",33517.000,"cc",28246.600,6.00,2824.660,1,6,0.100,20360.000,0.200,11649.000,0.300,1272.000,0.500,157.000,1.000,79.000,5.000,0
"07/09/06","13:11:24","AMMA06",33529.000,"cc",28314.586,6.00,2831.459,1,6,0.100,20222.000,0.200,11763.000,0.300,1330.000,0.500,141.000,1.000,73.000,5.000,0
"07/09/06","13:11:30","AMMA06",33593.000,"cc",28325.356,6.00,2832.536,1,6,0.100,20412.000,0.200,11602.000,0.300,1344.000,0.500,145.000,1.000,90.000,5.000,0
"07/09/06","13:11:36","AMMA06",33589.000,"cc",28312.789,6.00,2831.279,1,6,0.100,20443.000,0.200,11638.000,0.300,1305.000,0.500,140.000,1.000,63.000,5.000,0
"07/09/06","13:11:42","AMMA06",33361.000,"cc",28382.623,6.00,2838.263,1,6,0.100,20175.000,0.200,11709.000,0.300,1274.000,0.500,116.000,1.000,87.000,5.000,0
"07/09/06","13:11:48","AMMA06",33458.000,"cc",28304.971,6.00,2830.497,1,6,0.100,20275.000,0.200,11679.000,0.300,1284.000,0.500,134.000,1.000,86.000,5.000,0
"07/09/06","13:11:54","AMMA06",33397.000,"cc",28325.467,6.00,2832.547,1,6,0.100,20271.000,0.200,11653.000,0.300,1257.000,0.500,119.000,1.000,97.000,5.000,0
"07/09/06","13:12:00","AMMA06",33349.000,"cc",28327.008,6.00,2832.701,1,6,0.100,20351.000,0.200,11488.000,0.300,1283.000,0.500,133.000,1.000,94.000,5.000,0
"07/09/06","13:12:06","AMMA06",33429.000,"cc",28291.775,6.00,2829.178,1,6,0.100,20322.000,0.200,11570.000,0.300,1300.000,0.500,148.000,1.000,89.000,5.000,0
"07/09/06","13:12:12","AMMA06",33692.000,"cc",28335.848,6.00,2833.585,1,6,0.100,20556.000,0.200,11639.000,0.300,1259.000,0.500,158.000,1.000,80.000,5.000,0
"07/09/06","13:12:18","AMMA06",33278.000,"cc",28286.553,6.00,2828.656,1,6,0.100,20190.000,0.200,11583.000,0.300,1293.000,0.500,127.000,1.000,85.000,5.000,0
"07/09/06","13:12:24","AMMA06",33557.000,"cc",28340.631,6.00,2834.063,1,6,0.100,20385.000,0.200,11688.000,0.300,1275.000,0.500,142.000,1.000,67.000,5.000,0
"07/09/06","13:12:30","AMMA06",34053.000,"cc",28305.428,6.00,2830.543,1,6,0.100,20552.000,0.200,11980.000,0.300,1294.000,0.500,143.000,1.000,84.000,5.000,0
"07/09/06","13:12:36","AMMA06",33479.000,"cc",28290.184,6.00,2829.019,1,6,0.100,20171.000,0.200,11799.000,0.300,1287.000,0.500,153.000,1.000,69.000,5.000,0
"07/09/06","13:12:42","AMMA06",33520.000,"cc",28330.486,6.00,2833.049,1,6,0.100,20293.000,0.200,11665.000,0.300,1347.000,0.500,152.000,1.000,63.000,5.000,0
"07/09/06","13:12:48","AMMA06",33602.000,"cc",28334.395,6.00,2833.440,1,6,0.100,20521.000,0.200,11580.000,0.300,1259.000,0.500,166.000,1.000,76.000,5.000,0
"07/09/06","13:12:54","AMMA06",33143.000,"cc",28290.641,6.00,2829.064,1,6,0.100,19969.000,0.200,11727.000,0.300,1240.000,0.500,120.000,1.000,87.000,5.000,0
"07/09/06","13:13:00","AMMA06",33639.000,"cc",28316.463,6.00,2831.647,1,6,0.100,20457.000,0.200,11685.000,0.300,1303.000,0.500,133.000,1.000,61.000,5.000,0
"07/09/06","13:13:06","AMMA06",33116.000,"cc",28316.840,6.00,2831.684,1,6,0.100,20150.000,0.200,11507.000,0.300,1268.000,0.500,132.000,1.000,59.000,5.000,0
"07/09/06","13:13:12","AMMA06",33387.000,"cc",28347.047,6.00,2834.705,1,6,0.100,20190.000,0.200,11714.000,0.300,1272.000,0.500,129.000,1.000,82.000,5.000,0
"07/09/06","13:13:18","AMMA06",33576.000,"cc",28339.022,6.00,2833.902,1,6,0.100,20327.000,0.200,11742.000,0.300,1282.000,0.500,152.000,1.000,73.000,5.000,0
"07/09/06","13:13:24","AMMA06",32850.000,"cc",28306.170,6.00,2830.617,1,6,0.100,19859.000,0.200,11499.000,0.300,1279.000,0.500,138.000,1.000,75.000,5.000,0
"07/09/06","13:13:30","AMMA06",33543.000,"cc",28345.037,6.00,2834.504,1,6,0.100,20404.000,0.200,11650.000,0.300,1254.000,0.500,152.000,1.000,83.000,5.000,0
"07/09/06","13:13:36","AMMA06",33441.000,"cc",28360.701,6.00,2836.070,1,6,0.100,20387.000,0.200,11544.000,0.300,1295.000,0.500,137.000,1.000,78.000,5.000,0
"07/09/06","13:13:42","AMMA06",33368.000,"cc",28261.598,6.00,2826.160,1,6,0.100,20318.000,0.200,11522.000,0.300,1312.000,0.500,132.000,1.000,84.000,5.000,0
"07/09/06","13:13:48","AMMA06",32982.000,"cc",28296.650,6.00,2829.665,1,6,0.100,19912.000,0.200,11567.000,0.300,1286.000,0.500,143.000,1.000,74.000,5.000,0
"07/09/06","13:13:54","AMMA06",33434.000,"cc",28309.121,6.00,2830.912,1,6,0.100,20307.000,0.200,11609.000,0.300,1290.000,0.500,148.000,1.000,80.000,5.000,0
"07/09/06","13:14:00","AMMA06",33659.000,"cc",28268.750,6.00,2826.875,1,6,0.100,20376.000,0.200,11741.000,0.300,1327.000,0.500,145.000,1.000,70.000,5.000,0
"07/09/06","13:14:06","AMMA06",33671.000,"cc",28326.000,6.00,2832.600,1,6,0.100,20399.000,0.200,11741.000,0.300,1306.000,0.500,150.000,1.000,75.000,5.000,0
"07/09/06","13:14:12","AMMA06",33097.000,"cc",28339.217,6.00,2833.922,1,6,0.100,20161.000,0.200,11459.000,0.300,1260.000,0.500,137.000,1.000,80.000,5.000,0
"07/09/06","13:14:18","AMMA06",33662.000,"cc",28320.611,6.00,2832.061,1,6,0.100,20449.000,0.200,11672.000,0.300,1332.000,0.500,129.000,1.000,80.000,5.000,0